| time (UTC) | temp C | wind direction | speed KPH | gust KPH | rain 1hr cm | rain 24hr cm | rain mn cm | humidity % | barometer mb |
| 20260507073618 | 15 | 38 | 1.6 | 6.4 | 0.00 | 0.00 | 0.00 | 85 | 1012.9 |
| 20260507072631 | 15 | 59 | 1.6 | 6.4 | 0.00 | 0.00 | 0.00 | 85 | 1012.7 |
| 20260507071611 | 15 | 36 | 0.0 | 4.8 | 0.00 | 0.00 | 0.00 | 85 | 1013.1 |
| 20260507070541 | 15 | 43 | 1.6 | 11.3 | 0.00 | 0.00 | 0.00 | 85 | 1013.1 |
| 20260507064439 | 16 | 48 | 1.6 | 8.0 | 0.00 | 0.00 | 0.00 | 84 | 1013.1 |
| 20260507061206 | 16 | 28 | 3.2 | 16.1 | 0.00 | 0.00 | 0.00 | 85 | 1012.2 |
| 20260507060151 | 16 | 25 | 1.6 | 12.9 | 0.00 | 0.00 | 0.00 | 85 | 1013.0 |
| 20260507055208 | 16 | 17 | 3.2 | 12.9 | 0.00 | 0.00 | 0.00 | 84 | 1012.8 |
| 20260507054233 | 16 | 25 | 3.2 | 12.9 | 0.00 | 0.00 | 0.00 | 85 | 1012.6 |
| 20260507053223 | 16 | 342 | 3.2 | 11.3 | 0.00 | 0.00 | 0.00 | 84 | 1013.0 |
| 20260507052149 | 16 | 75 | 3.2 | 9.7 | 0.00 | 0.00 | 0.00 | 84 | 1012.9 |
| 20260507051157 | 16 | 62 | 4.8 | 14.5 | 0.00 | 0.00 | 0.00 | 84 | 1012.7 |
| 20260507050217 | 16 | 24 | 4.8 | 14.5 | 0.00 | 0.00 | 0.00 | 84 | 1012.5 |
| 20260507045209 | 16 | 15 | 3.2 | 12.9 | 0.00 | 0.00 | 0.00 | 84 | 1012.5 |
| 20260507044221 | 16 | 0 | 3.2 | 19.3 | 0.00 | 0.00 | 0.00 | 84 | 1012.7 |
| 20260507043210 | 16 | 329 | 4.8 | 19.3 | 0.00 | 0.00 | 0.00 | 84 | 1012.5 |
| 20260507042148 | 16 | 15 | 6.4 | 16.1 | 0.00 | 0.00 | 0.00 | 84 | 1012.7 |
| 20260507041141 | 16 | 19 | 4.8 | 16.1 | 0.00 | 0.00 | 0.00 | 84 | 1012.7 |
| 20260507040116 | 16 | 13 | 4.8 | 16.1 | 0.00 | 0.00 | 0.00 | 84 | 1012.2 |
| 20260507035116 | 16 | 355 | 6.4 | 19.3 | 0.00 | 0.00 | 0.00 | 84 | 1012.3 |
| 20260507034044 | 16 | 11 | 6.4 | 20.9 | 0.00 | 0.00 | 0.00 | 84 | 1012.6 |
| 20260507033028 | 16 | 15 | 4.8 | 20.9 | 0.00 | 0.00 | 0.00 | 84 | 1012.2 |
| 20260507032028 | 16 | 24 | 6.4 | 19.3 | 0.00 | 0.00 | 0.00 | 84 | 1012.3 |
| 20260507031000 | 16 | 341 | 6.4 | 17.7 | 0.00 | 0.00 | 0.00 | 85 | 1012.0 |
| 20260507022550 | 16 | 355 | 4.8 | 16.1 | 0.00 | 0.00 | 0.00 | 85 | 1011.9 |
| 20260507021609 | 16 | 327 | 4.8 | 14.5 | 0.00 | 0.00 | 0.00 | 85 | 1011.6 |
| 20260507013102 | 17 | 345 | 4.8 | 16.1 | 0.00 | 0.00 | 0.00 | 83 | 1010.6 |
| 20260507010952 | 17 | 344 | 4.8 | 14.5 | 0.00 | 0.00 | 0.00 | 83 | 1010.6 |
| 20260507005918 | 17 | 355 | 8.0 | 17.7 | 0.00 | 0.00 | 0.00 | 82 | 1010.3 |
| 20260507004927 | 17 | 355 | 6.4 | 17.7 | 0.00 | 0.00 | 0.00 | 82 | 1010.4 |
| 20260507003950 | 17 | 46 | 4.8 | 17.7 | 0.00 | 0.00 | 0.00 | 83 | 1010.2 |
| 20260507002941 | 17 | 48 | 8.0 | 17.7 | 0.00 | 0.00 | 0.00 | 82 | 1009.8 |
| 20260507001920 | 17 | 344 | 8.0 | 19.3 | 0.00 | 0.00 | 0.00 | 82 | 1010.0 |
| 20260507000859 | 17 | 57 | 8.0 | 20.9 | 0.00 | 0.00 | 0.00 | 82 | 1010.0 |
| 20260506235832 | 17 | 17 | 8.0 | 22.5 | 0.00 | 0.00 | 0.00 | 81 | 1009.6 |
| 20260506234839 | 17 | 339 | 9.7 | 22.5 | 0.00 | 0.00 | 0.00 | 81 | 1009.7 |
| 20260506233840 | 17 | 12 | 8.0 | 19.3 | 0.00 | 0.00 | 0.00 | 81 | 1009.8 |
| 20260506232843 | 17 | 355 | 8.0 | 19.3 | 0.00 | 0.00 | 0.00 | 80 | 1009.5 |
| 20260506230704 | 17 | 343 | 6.4 | 16.1 | 0.00 | 0.00 | 0.00 | 80 | 1009.4 |
| 20260506223405 | 18 | 318 | 9.7 | 24.1 | 0.00 | 0.00 | 0.00 | 79 | 1009.3 |
| 20260506222403 | 18 | 328 | 8.0 | 20.9 | 0.00 | 0.00 | 0.00 | 78 | 1009.2 |
| 20260506221343 | 18 | 9 | 11.3 | 22.5 | 0.00 | 0.00 | 0.00 | 78 | 1009.0 |
| 20260506220343 | 18 | 286 | 11.3 | 22.5 | 0.00 | 0.00 | 0.00 | 78 | 1009.2 |
| 20260506215332 | 18 | 355 | 9.7 | 20.9 | 0.00 | 0.00 | 0.00 | 76 | 1009.2 |
| 20260506214334 | 19 | 305 | 9.7 | 20.9 | 0.00 | 0.00 | 0.00 | 77 | 1009.2 |
| 20260506213346 | 20 | 306 | 9.7 | 19.3 | 0.00 | 0.00 | 0.00 | 74 | 1009.0 |
| 20260506212346 | 20 | 5 | 8.0 | 20.9 | 0.00 | 0.00 | 0.00 | 74 | 1008.9 |
| 20260506211321 | 21 | 344 | 11.3 | 24.1 | 0.00 | 0.00 | 0.00 | 72 | 1008.9 |
| 20260506210320 | 22 | 355 | 9.7 | 24.1 | 0.00 | 0.00 | 0.00 | 71 | 1008.9 |
| 20260506205338 | 22 | 49 | 9.7 | 25.7 | 0.00 | 0.00 | 0.00 | 73 | 1008.9 |
| 20260506204358 | 21 | 11 | 11.3 | 25.7 | 0.00 | 0.00 | 0.00 | 75 | 1008.9 |
| 20260506203351 | 22 | 28 | 9.7 | 22.5 | 0.00 | 0.00 | 0.00 | 74 | 1009.1 |
| 20260506201237 | 22 | 355 | 9.7 | 24.1 | 0.00 | 0.00 | 0.00 | 74 | 1009.2 |
| 20260506195104 | 23 | 314 | 9.7 | 24.1 | 0.00 | 0.00 | 0.00 | 75 | 1008.9 |
| 20260506194108 | 23 | 5 | 9.7 | 24.1 | 0.00 | 0.00 | 0.00 | 73 | 1008.7 |
| 20260506193106 | 24 | 339 | 9.7 | 24.1 | 0.00 | 0.00 | 0.00 | 73 | 1008.5 |
| 20260506192034 | 25 | 355 | 9.7 | 24.1 | 0.00 | 0.00 | 0.00 | 72 | 1008.5 |
| 20260506191002 | 26 | 355 | 6.4 | 16.1 | 0.00 | 0.00 | 0.00 | 71 | 1008.4 |
| 20260506185945 | 27 | 61 | 4.8 | 12.9 | 0.00 | 0.00 | 0.00 | 71 | 1008.6 |
| 20260506184944 | 27 | 5 | 3.2 | 14.5 | 0.00 | 0.00 | 0.00 | 69 | 1008.6 |
| 20260506183914 | 27 | 37 | 3.2 | 14.5 | 0.00 | 0.00 | 0.00 | 71 | 1008.5 |
| 20260506182901 | 27 | 351 | 1.6 | 11.3 | 0.00 | 0.00 | 0.00 | 71 | 1008.3 |
| 20260506181901 | 26 | 301 | 1.6 | 11.3 | 0.00 | 0.00 | 0.00 | 72 | 1008.5 |
| 20260506180909 | 25 | 24 | 1.6 | 14.5 | 0.00 | 0.00 | 0.00 | 75 | 1008.6 |
| 20260506175927 | 25 | 30 | 3.2 | 14.5 | 0.00 | 0.00 | 0.00 | 75 | 1008.5 |
| 20260506173729 | 23 | 54 | 3.2 | 9.7 | 0.00 | 0.00 | 0.00 | 75 | 1008.6 |
| 20260506172708 | 23 | 5 | 1.6 | 9.7 | 0.00 | 0.00 | 0.00 | 76 | 1008.6 |
| 20260506171728 | 23 | 15 | 3.2 | 12.9 | 0.00 | 0.00 | 0.00 | 77 | 1008.8 |
| 20260506170722 | 22 | 0 | 4.8 | 14.5 | 0.00 | 0.00 | 0.00 | 82 | 1008.8 |
| 20260506165658 | 21 | 33 | 3.2 | 14.5 | 0.00 | 0.00 | 0.00 | 82 | 1008.8 |
| 20260506164624 | 20 | 20 | 6.4 | 17.7 | 0.00 | 0.00 | 0.00 | 84 | 1009.0 |
| 20260506163612 | 19 | 337 | 6.4 | 19.3 | 0.00 | 0.00 | 0.00 | 84 | 1009.3 |
| 20260506162550 | 20 | 30 | 8.0 | 19.3 | 0.00 | 0.00 | 0.00 | 84 | 1009.6 |
| 20260506161526 | 20 | 355 | 9.7 | 24.1 | 0.00 | 0.00 | 0.00 | 84 | 1009.8 |
| 20260506160525 | 22 | 5 | 9.7 | 24.1 | 0.00 | 0.00 | 0.00 | 80 | 1010.0 |
| 20260506155530 | 25 | 330 | 4.8 | 22.5 | 0.00 | 0.00 | 0.00 | 77 | 1009.4 |
| 20260506154539 | 25 | 43 | 0.0 | 8.0 | 0.00 | 0.00 | 0.00 | 85 | 1009.1 |
| 20260506153527 | 25 | 54 | 0.0 | 4.8 | 0.00 | 0.00 | 0.00 | 86 | 1008.8 |
| 20260506152522 | 25 | 86 | 0.0 | 0.0 | 0.00 | 0.00 | 0.00 | 86 | 1008.7 |
| 20260506150341 | 25 | 123 | 0.0 | 1.6 | 0.00 | 0.00 | 0.00 | 87 | 1008.1 |
| 20260506145342 | 25 | 182 | 0.0 | 8.0 | 0.00 | 0.00 | 0.00 | 87 | 1007.7 |
| 20260506144351 | 25 | 144 | 0.0 | 4.8 | 0.00 | 0.00 | 0.00 | 87 | 1007.6 |
| 20260506142232 | 24 | 143 | 3.2 | 11.3 | 0.00 | 0.00 | 0.00 | 88 | 1007.2 |
| 20260506134907 | 23 | 182 | 1.6 | 8.0 | 0.00 | 0.00 | 0.00 | 90 | 1007.2 |
| 20260506133919 | 23 | 193 | 1.6 | 9.7 | 0.00 | 0.00 | 0.00 | 91 | 1006.8 |
| 20260506132907 | 23 | 140 | 3.2 | 11.3 | 0.00 | 0.00 | 0.00 | 91 | 1006.8 |
| 20260506130712 | 23 | 122 | 3.2 | 12.9 | 0.00 | 0.00 | 0.00 | 92 | 1006.6 |
| 20260506125716 | 23 | 153 | 3.2 | 12.9 | 0.00 | 0.00 | 0.00 | 92 | 1006.5 |
| 20260506124734 | 23 | 142 | 1.6 | 11.3 | 0.00 | 0.00 | 0.00 | 92 | 1006.4 |
| 20260506123724 | 23 | 118 | 1.6 | 9.7 | 0.00 | 0.00 | 0.00 | 92 | 1006.4 |
| 20260506122729 | 23 | 141 | 0.0 | 3.2 | 0.00 | 0.00 | 0.00 | 92 | 1006.4 |
| 20260506121716 | 23 | 130 | 0.0 | 3.2 | 0.00 | 0.00 | 0.00 | 92 | 1006.5 |
| 20260506120702 | 23 | 116 | 0.0 | 3.2 | 0.00 | 0.00 | 0.00 | 91 | 1006.6 |
| 20260506115712 | 23 | 144 | 0.0 | 3.2 | 0.00 | 0.00 | 0.00 | 91 | 1006.4 |
| 20260506114642 | 23 | 98 | 0.0 | 3.2 | 0.00 | 0.00 | 0.00 | 91 | 1006.3 |
| 20260506113656 | 23 | 138 | 0.0 | 1.6 | 0.00 | 0.00 | 0.00 | 90 | 1006.4 |
| 20260506112639 | 23 | 138 | 0.0 | 3.2 | 0.00 | 0.00 | 0.00 | 91 | 1006.4 |
| 20260506111653 | 23 | 123 | 0.0 | 3.2 | 0.00 | 0.00 | 0.00 | 90 | 1006.3 |
| 20260506110706 | 23 | 160 | 0.0 | 3.2 | 0.00 | 0.00 | 0.00 | 90 | 1006.2 |
| 20260506105643 | 23 | 194 | 0.0 | 3.2 | 0.00 | 0.00 | 0.00 | 90 | 1006.2 |
| 20260506104609 | 23 | 171 | 0.0 | 6.4 | 0.00 | 0.00 | 0.00 | 90 | 1006.1 |
| 20260506103544 | 23 | 205 | 1.6 | 8.0 | 0.00 | 0.00 | 0.00 | 90 | 1005.9 |
| 20260506102604 | 23 | 190 | 1.6 | 12.9 | 0.00 | 0.00 | 0.00 | 90 | 1005.7 |
| 20260506101543 | 23 | 192 | 4.8 | 14.5 | 0.00 | 0.00 | 0.00 | 90 | 1005.7 |
| 20260506095403 | 23 | 209 | 6.4 | 17.7 | 0.00 | 0.00 | 0.00 | 90 | 1005.6 |
| 20260506094423 | 23 | 192 | 4.8 | 12.9 | 0.00 | 0.00 | 0.00 | 90 | 1005.5 |
| 20260506092254 | 23 | 187 | 6.4 | 22.5 | 0.00 | 0.00 | 0.00 | 90 | 1005.3 |
| 20260506091240 | 23 | 204 | 4.8 | 19.3 | 0.00 | 0.00 | 0.00 | 90 | 1005.2 |
| 20260506090207 | 23 | 219 | 4.8 | 14.5 | 0.00 | 0.00 | 0.00 | 90 | 1005.1 |
| 20260506084057 | 23 | 170 | 6.4 | 19.3 | 0.00 | 0.00 | 0.00 | 90 | 1005.1 |
| 20260506081934 | 23 | 172 | 4.8 | 12.9 | 0.00 | 0.00 | 0.00 | 90 | 1005.2 |
| 20260506080953 | 23 | 188 | 8.0 | 19.3 | 0.00 | 0.00 | 0.00 | 90 | 1005.2 |